Date Time,Air Temp,Sky Temp,Clarity,Light Level,Rain Sensor,Readings
2014-11-14 00:00:04,19.4,6.2,13.1,0.3,2.2,111
2014-11-14 00:05:04,19.4,5.3,14.1,0.3,2.2,112
2014-11-14 00:10:04,19.4,5.6,13.9,0.3,2.3,112
2014-11-14 00:15:04,19.5,5.5,14.0,0.3,2.3,111
2014-11-14 00:20:04,19.5,6.1,13.4,0.3,2.3,112
2014-11-14 00:25:04,19.6,7.5,12.0,0.3,2.3,111
2014-11-14 00:30:04,19.6,7.5,12.1,0.3,2.3,112
2014-11-14 00:35:04,19.7,8.3,11.4,0.3,2.3,111
2014-11-14 00:40:04,19.8,8.5,11.3,0.3,2.3,112
2014-11-14 00:45:04,19.8,8.1,11.7,0.3,2.3,111
2014-11-14 00:50:04,19.8,5.5,14.3,0.3,2.3,112
2014-11-14 00:55:04,19.7,4.3,15.4,0.3,2.3,111
2014-11-14 01:00:04,19.7,5.2,14.5,0.3,2.3,112
2014-11-14 01:05:04,19.7,6.2,13.5,0.3,2.3,111
2014-11-14 01:10:04,19.7,7.2,12.5,0.3,2.3,112
2014-11-14 01:15:04,19.7,4.9,14.8,0.3,2.3,111
2014-11-14 01:20:04,20.6,-0.8,21.4,0.2,2.5,112
2014-11-14 01:25:04,22.8,-3.5,26.2,0.2,2.4,111
2014-11-14 01:30:04,23.8,-3.9,27.8,0.2,2.3,112
2014-11-14 01:35:04,24.0,-4.4,28.4,0.2,2.3,112
2014-11-14 01:40:04,24.1,-4.4,28.5,0.2,2.3,112
2014-11-14 01:45:04,24.1,-4.4,28.6,0.2,2.3,112
2014-11-14 01:50:04,24.0,-4.2,28.2,0.2,2.3,111
2014-11-14 01:55:04,24.0,-4.0,28.0,0.2,2.3,112
2014-11-14 02:00:04,24.0,-4.1,28.1,0.2,2.3,112
2014-11-14 02:05:04,23.9,-4.1,28.0,0.2,2.3,111
2014-11-14 02:10:04,24.0,-0.8,24.8,0.2,2.3,112
2014-11-14 02:15:04,21.9,8.2,13.7,0.3,2.4,111
2014-11-14 02:20:04,20.4,8.1,12.2,0.3,2.7,112
2014-11-14 02:25:04,20.0,8.3,11.7,0.3,2.7,111
2014-11-14 02:30:04,19.9,8.3,11.7,0.2,2.7,111
2014-11-14 02:35:05,19.9,7.7,12.1,0.3,2.6,111
2014-11-14 02:40:05,19.9,8.5,11.3,0.2,2.5,112
2014-11-14 02:45:05,19.9,8.8,11.1,0.3,2.5,111
2014-11-14 02:50:05,19.6,8.7,10.9,0.3,2.5,112
2014-11-14 02:55:05,20.0,8.7,11.2,0.3,2.6,111
2014-11-14 03:00:05,20.0,8.5,11.5,0.3,2.6,111
2014-11-14 03:05:05,20.0,8.1,11.9,0.3,2.6,111
2014-11-14 03:10:05,20.0,8.1,11.9,0.3,2.6,112
2014-11-14 03:15:05,20.0,7.5,12.5,0.3,3.5,111
2014-11-14 03:20:05,19.9,7.9,12.1,0.2,4.9,111
2014-11-14 03:25:05,19.8,7.4,12.4,0.2,6.1,112
2014-11-14 03:30:05,19.6,7.8,11.9,0.1,6.6,111
2014-11-14 03:35:05,19.5,12.2,7.3,0.1,28.4,111
2014-11-14 03:40:05,19.4,11.7,7.7,0.1,25.5,111
2014-11-14 03:45:05,19.1,11.5,7.6,0.1,24.8,112
2014-11-14 03:50:05,19.0,12.1,6.9,0.1,20.3,111
2014-11-14 03:55:05,18.9,11.7,7.2,0.2,16.9,112
2014-11-14 04:00:05,18.8,10.6,8.2,0.3,22.1,111
2014-11-14 04:05:05,18.8,12.0,6.8,0.3,16.0,112
2014-11-14 04:10:05,18.6,12.5,6.1,0.3,5.6,112
2014-11-14 04:15:05,18.4,11.6,6.9,0.3,2.3,111
2014-11-14 04:20:05,18.4,8.6,9.8,0.3,2.4,112
2014-11-14 04:25:05,18.6,8.5,10.1,0.2,2.3,111
2014-11-14 04:30:05,18.7,8.7,10.0,0.2,2.3,112
2014-11-14 04:35:05,18.8,8.6,10.2,0.2,2.1,111
2014-11-14 04:40:05,18.9,8.7,10.2,0.2,2.0,111
2014-11-14 04:45:05,19.0,8.8,10.2,0.2,2.0,112
2014-11-14 04:50:05,18.7,9.0,9.7,0.2,3.9,111
2014-11-14 04:55:05,19.0,8.7,10.3,0.2,2.4,112
2014-11-14 05:00:05,19.0,8.8,10.2,0.2,2.3,111
2014-11-14 05:05:05,19.0,8.9,10.1,0.2,3.0,112
2014-11-14 05:10:05,19.1,8.7,10.4,0.2,2.5,111
2014-11-14 05:15:05,19.1,8.5,10.6,0.2,2.3,112
2014-11-14 05:20:05,19.1,8.6,10.5,0.2,2.1,111
2014-11-14 05:25:05,19.1,9.0,10.1,0.2,2.0,111
2014-11-14 05:30:05,19.2,9.1,10.1,0.2,2.0,112
2014-11-14 05:35:05,19.2,9.1,10.1,0.2,3.5,111
2014-11-14 05:40:05,19.1,10.3,8.8,0.1,14.6,111
2014-11-14 05:45:05,18.8,13.4,5.4,0.2,33.0,112
2014-11-14 05:50:05,18.7,12.6,6.1,0.1,32.1,111
2014-11-14 05:55:05,18.4,13.0,5.4,0.2,29.6,112
2014-11-14 06:00:05,18.5,12.7,5.8,0.2,22.1,111
2014-11-14 06:05:04,18.7,8.6,10.2,0.2,3.5,71
2014-11-14 06:10:04,18.3,9.4,8.9,0.1,2.6,112
2014-11-14 06:15:04,18.6,9.8,8.8,0.2,2.5,111
2014-11-14 06:20:04,18.6,9.1,9.5,0.3,2.5,111
2014-11-14 06:25:04,18.7,8.4,10.2,0.4,2.6,111
2014-11-14 06:30:04,18.4,7.6,10.9,0.4,4.4,112
2014-11-14 06:35:04,18.8,6.1,12.7,0.6,13.0,111
2014-11-14 06:40:04,18.8,9.9,8.8,0.8,20.3,111
2014-11-14 06:45:04,19.0,14.7,4.3,1.2,29.2,112
2014-11-14 06:50:04,19.1,15.6,3.5,2.7,25.9,111
2014-11-14 06:55:04,19.1,15.9,3.2,5.9,27.9,112
2014-11-14 07:00:04,19.1,15.2,3.9,10.4,20.5,111
2014-11-14 07:05:04,19.2,12.8,6.4,12.1,19.3,112
2014-11-14 07:10:04,19.1,14.3,4.8,13.2,20.7,111
2014-11-14 07:15:04,19.1,13.6,5.4,14.7,24.7,111
2014-11-14 07:20:04,19.0,13.1,5.9,20.8,26.4,112
2014-11-14 07:25:04,18.9,13.8,5.0,23.4,25.9,111
2014-11-14 07:30:04,18.9,13.9,5.0,25.9,24.6,111
2014-11-14 07:35:04,19.1,14.9,4.3,26.6,21.4,112
2014-11-14 07:40:04,19.3,15.0,4.3,26.0,24.1,111
2014-11-14 07:45:04,19.3,15.6,3.7,24.4,26.8,112
2014-11-14 07:50:04,19.1,15.4,3.7,24.4,32.9,111
2014-11-14 07:55:04,19.3,16.6,2.7,26.0,23.1,111
2014-11-14 08:00:04,19.3,13.3,6.0,29.3,11.1,112
2014-11-14 08:05:04,19.0,10.0,9.0,29.3,4.0,111
2014-11-14 08:10:04,18.8,11.3,7.6,29.2,24.9,111
2014-11-14 08:15:04,18.4,9.8,8.6,30.1,27.5,112
2014-11-14 08:20:04,18.3,10.3,8.0,30.4,19.3,111
2014-11-14 08:25:04,18.3,12.3,6.0,30.5,9.2,111
2014-11-14 08:30:04,18.0,12.4,5.6,30.7,3.6,112
2014-11-14 08:35:04,17.8,6.9,10.9,30.6,7.0,111
2014-11-14 08:40:04,17.6,5.6,12.1,30.8,13.5,112
2014-11-14 08:45:04,17.7,12.1,5.6,31.0,15.3,111
2014-11-14 08:50:04,17.6,11.3,6.4,31.2,18.2,111
2014-11-14 08:55:04,17.8,13.4,4.3,31.5,24.7,112
2014-11-14 09:00:04,18.1,15.1,3.0,32.0,29.0,111
2014-11-14 09:05:04,18.3,15.1,3.2,31.8,23.2,111
2014-11-14 09:10:04,18.4,14.3,4.1,31.7,24.0,111
2014-11-14 09:15:04,18.4,15.2,3.2,31.5,21.1,112
2014-11-14 09:20:04,18.4,10.0,8.3,31.8,7.9,111
2014-11-14 09:25:04,18.1,6.7,11.3,32.3,2.6,112
2014-11-14 09:30:04,18.0,5.6,12.3,32.3,2.3,111
2014-11-14 09:35:04,18.1,6.3,11.8,32.3,2.2,112
2014-11-14 09:40:04,18.2,7.2,11.0,32.3,2.0,112
2014-11-14 09:45:04,18.3,6.9,11.4,32.3,1.9,111
2014-11-14 09:50:04,18.4,6.3,12.1,32.3,1.8,111
2014-11-14 09:55:04,18.6,6.6,12.1,32.4,2.0,112
2014-11-14 10:00:04,18.8,4.6,14.2,32.5,2.2,112
2014-11-14 10:05:04,19.0,6.9,12.1,32.4,2.3,111
2014-11-14 10:10:04,19.1,4.6,14.4,32.4,2.3,112
2014-11-14 10:15:04,19.1,5.4,13.6,32.5,2.3,111
2014-11-14 10:20:04,19.2,1.4,17.8,32.5,2.3,111
2014-11-14 10:25:04,19.4,4.7,14.8,32.5,2.4,112
2014-11-14 10:30:04,19.5,7.9,11.6,32.5,2.5,111
2014-11-14 10:35:04,19.8,8.4,11.4,32.4,2.7,111
2014-11-14 10:40:04,20.1,5.6,14.5,32.5,2.6,112
2014-11-14 10:45:04,20.6,2.8,17.9,32.5,2.3,111
2014-11-14 10:50:04,23.5,-1.8,25.4,32.5,2.4,112
2014-11-14 10:55:04,25.5,-1.6,27.1,32.6,2.3,112
2014-11-14 11:00:04,26.5,-4.4,30.9,32.6,2.3,112
2014-11-14 11:05:04,27.1,-5.1,32.2,32.6,2.3,111
2014-11-14 11:10:04,26.4,-6.0,32.4,32.5,2.3,112
2014-11-14 11:15:04,26.7,-2.9,29.6,32.6,2.3,111
2014-11-14 11:20:04,26.8,-1.8,28.6,32.5,2.3,112
2014-11-14 11:25:04,26.3,1.3,25.0,32.5,2.3,112
2014-11-14 11:30:04,25.7,-0.8,26.5,32.5,2.3,111
2014-11-14 11:35:04,25.9,-3.2,29.1,32.5,2.3,112
2014-11-14 11:40:04,25.8,-4.5,30.2,32.5,2.3,112
2014-11-14 11:45:04,26.0,-5.2,31.2,32.6,2.3,111
2014-11-14 11:50:04,26.5,-5.5,32.0,32.6,2.3,112
2014-11-14 11:55:04,27.0,-4.8,31.8,32.6,2.3,112
2014-11-14 12:00:04,27.4,-4.1,31.5,32.6,2.3,111
2014-11-14 12:05:04,27.5,-4.3,31.8,32.6,2.3,112
2014-11-14 12:10:04,27.4,-1.9,29.3,32.6,2.3,111
2014-11-14 12:15:04,27.0,4.6,22.4,32.6,2.3,112
2014-11-14 12:20:04,25.9,7.4,18.5,32.6,2.2,111
2014-11-14 12:25:04,25.4,-1.6,27.0,32.5,2.3,111
2014-11-14 12:30:04,25.6,-6.7,32.4,32.5,2.3,112
2014-11-14 12:35:04,26.0,-5.0,31.0,32.6,2.3,112
2014-11-14 12:40:04,26.8,-4.8,31.6,32.6,2.3,111
2014-11-14 12:45:04,27.4,-5.9,33.3,32.6,2.3,112
2014-11-14 12:50:04,27.6,-4.0,31.6,32.6,2.3,111
2014-11-14 12:55:04,27.7,-4.1,31.8,32.6,2.3,112
2014-11-14 13:00:04,27.6,-6.5,34.1,32.6,2.3,112
2014-11-14 13:05:04,27.2,-7.7,34.9,32.5,2.3,111
2014-11-14 13:10:04,26.8,-5.4,32.3,32.6,2.2,112
2014-11-14 13:15:04,27.1,-5.9,33.1,32.6,2.3,111
2014-11-14 13:20:04,27.3,-6.2,33.5,32.6,2.3,112
2014-11-14 13:25:04,27.2,-5.4,32.6,32.6,2.3,112
2014-11-14 13:30:04,27.4,-5.7,33.1,32.6,2.3,112
2014-11-14 13:35:04,27.6,-4.7,32.3,32.6,2.3,112
2014-11-14 13:40:04,27.7,-4.4,32.1,32.6,2.4,111
2014-11-14 13:45:04,27.9,-4.5,32.4,32.6,2.5,112
2014-11-14 13:50:04,28.1,-4.1,32.2,32.6,2.4,112
2014-11-14 13:55:04,27.7,-4.3,32.0,32.6,2.3,111
2014-11-14 14:00:04,28.3,-4.4,32.7,32.6,2.3,112
2014-11-14 14:05:04,28.1,-4.9,33.0,32.6,2.3,112
2014-11-14 14:10:04,27.7,-6.0,33.6,32.6,2.4,112
2014-11-14 14:15:04,27.4,-2.5,29.9,32.6,2.3,112
2014-11-14 14:20:04,27.6,-4.7,32.3,32.6,2.4,111
2014-11-14 14:25:04,27.1,-6.8,33.9,32.5,2.3,112
2014-11-14 14:30:04,26.0,-5.4,31.4,32.3,2.3,111
2014-11-14 14:35:04,25.3,0.3,25.0,32.5,2.3,112
2014-11-14 14:40:04,25.1,2.0,23.1,32.4,2.3,111
2014-11-14 14:45:04,24.3,5.1,19.2,32.3,2.3,112
2014-11-14 14:50:04,21.5,4.2,17.3,32.3,2.4,111
2014-11-14 14:55:04,20.6,7.3,13.3,32.3,2.3,111
2014-11-14 15:00:04,20.3,8.0,12.4,32.3,2.3,112
2014-11-14 15:05:04,20.2,7.6,12.7,32.3,2.3,112
2014-11-14 15:10:04,20.1,7.0,13.1,32.4,2.3,111
2014-11-14 15:15:04,20.3,8.6,11.7,32.5,2.3,112
2014-11-14 15:20:04,21.6,0.7,20.8,32.5,2.3,111
2014-11-14 15:25:04,24.5,-3.5,28.0,32.5,2.3,112
2014-11-14 15:30:04,25.7,-4.6,30.3,32.5,2.3,112
2014-11-14 15:35:04,26.2,-4.8,31.0,32.5,2.3,112
2014-11-14 15:40:04,26.3,-3.7,30.0,32.5,2.3,112
2014-11-14 15:45:04,26.4,-3.3,29.7,32.5,2.3,112
2014-11-14 15:50:04,26.4,-4.3,30.7,32.4,2.3,111
2014-11-14 15:55:04,25.9,-4.6,30.4,32.4,2.3,112
2014-11-14 16:00:04,25.6,-4.9,30.4,32.3,2.3,112
2014-11-14 16:05:04,25.2,-5.9,31.1,32.0,2.3,112
2014-11-14 16:10:04,24.6,-6.6,31.2,31.8,2.3,111
2014-11-14 16:15:04,24.2,-7.1,31.4,31.4,2.3,112
2014-11-14 16:20:04,24.0,-7.5,31.5,30.9,2.3,111
2014-11-14 16:25:04,23.8,-7.7,31.5,30.2,2.3,111
2014-11-14 16:30:05,23.6,-7.6,31.2,29.2,2.3,111
2014-11-14 16:35:05,23.4,-7.5,30.9,27.4,2.5,112
2014-11-14 16:40:05,23.2,-7.5,30.7,24.0,2.4,111
2014-11-14 16:45:05,23.2,-6.3,29.4,17.9,2.3,112
2014-11-14 16:50:05,23.0,-0.1,23.2,10.9,2.3,111
2014-11-14 16:55:05,22.3,-0.5,22.8,6.9,2.3,112
2014-11-14 17:00:05,23.2,-0.1,23.3,4.0,2.3,111
2014-11-14 17:05:05,21.8,4.6,17.2,2.2,2.3,112
2014-11-14 17:10:05,19.6,2.6,17.0,1.5,2.6,111
2014-11-14 17:15:05,19.2,-0.0,19.3,0.9,2.5,112
2014-11-14 17:20:05,21.7,-0.0,21.7,0.6,2.3,111
2014-11-14 17:25:05,22.8,-3.8,26.5,0.3,2.3,111
2014-11-14 17:30:05,23.0,-5.1,28.1,0.2,2.3,112
2014-11-14 17:35:05,23.1,-5.0,28.1,0.1,2.3,112
2014-11-14 17:40:05,23.1,-7.0,30.1,0.0,2.3,111
2014-11-14 17:45:05,23.1,-7.7,30.8,0.0,2.3,111
2014-11-14 17:50:05,23.0,-8.8,31.8,0.0,2.3,112
2014-11-14 17:55:05,22.8,-8.4,31.3,0.0,2.3,112
2014-11-14 18:00:05,22.8,-8.6,31.4,0.0,2.3,112
2014-11-14 18:05:05,22.6,-8.5,31.1,0.0,2.6,112
2014-11-14 18:10:05,22.4,-1.5,23.9,0.0,2.7,111
2014-11-14 18:15:05,20.3,0.3,20.0,0.0,2.3,111
2014-11-14 18:20:05,21.4,1.4,20.0,0.0,2.3,112
2014-11-14 18:25:05,19.2,4.6,14.6,0.1,1.9,111
2014-11-14 18:30:05,18.3,3.6,14.7,0.1,2.3,112
2014-11-14 18:35:05,18.3,-0.4,18.7,0.0,2.3,111
2014-11-14 18:40:05,18.0,1.5,16.5,0.0,2.3,111
2014-11-14 18:45:05,17.7,0.7,17.0,0.0,2.3,111
2014-11-14 18:50:05,19.4,-2.3,21.7,0.0,2.3,112
2014-11-14 18:55:05,21.5,-2.6,24.1,0.0,2.0,111
2014-11-14 19:00:05,21.9,-2.1,24.0,0.0,2.3,112
2014-11-14 19:05:05,22.1,-2.9,25.1,0.0,2.3,112
2014-11-14 19:10:05,22.2,-6.2,28.4,0.0,2.3,112
2014-11-14 19:15:05,22.2,-9.5,31.8,0.0,2.3,112
2014-11-14 19:20:05,22.1,-9.6,31.7,0.0,2.3,111
2014-11-14 19:25:05,22.0,-6.9,28.8,0.0,2.3,112
2014-11-14 19:30:05,22.0,-2.2,24.3,0.0,2.3,111
2014-11-14 19:35:05,22.1,-8.8,30.9,0.0,2.3,112
2014-11-14 19:40:05,22.0,-9.6,31.7,0.0,2.3,112
2014-11-14 19:45:05,21.9,-9.6,31.6,0.0,2.3,111
2014-11-14 19:50:05,21.7,-9.8,31.5,0.0,2.2,112
2014-11-14 19:55:05,21.6,-9.4,31.0,0.0,2.1,112
2014-11-14 20:00:05,21.6,-7.8,29.4,0.0,2.0,112
2014-11-14 20:05:05,21.5,-8.7,30.2,0.0,2.0,112
2014-11-14 20:10:05,21.7,-9.7,31.4,0.0,2.1,112
2014-11-14 20:15:05,21.7,-9.8,31.5,0.0,2.1,112
2014-11-14 20:20:05,21.6,-9.9,31.6,0.0,2.1,111
2014-11-14 20:25:05,21.6,-9.7,31.3,0.0,2.0,112
2014-11-14 20:30:05,21.6,-9.5,31.1,0.0,2.0,111
2014-11-14 20:35:05,21.5,-9.4,30.9,0.0,1.9,112
2014-11-14 20:40:05,21.5,-5.1,26.6,0.0,2.0,112
2014-11-14 20:45:05,21.6,-2.8,24.4,0.0,1.9,112
2014-11-14 20:50:05,21.7,-4.9,26.5,0.0,2.0,112
2014-11-14 20:55:05,21.7,-8.1,29.8,0.0,2.1,111
2014-11-14 21:00:05,21.7,-8.8,30.5,0.0,2.0,112
2014-11-14 21:05:05,21.7,-9.0,30.8,0.0,2.0,112
2014-11-14 21:10:05,21.8,-9.2,31.0,0.0,2.0,112
2014-11-14 21:15:05,21.7,-9.4,31.0,0.0,2.0,111
2014-11-14 21:20:05,21.6,-9.3,30.9,0.0,1.9,112
2014-11-14 21:25:05,21.6,-9.3,30.9,0.0,1.9,112
2014-11-14 21:30:05,21.6,-9.3,30.9,0.0,2.0,111
2014-11-14 21:35:05,21.7,-9.9,31.5,0.0,1.9,112
2014-11-14 21:40:05,21.6,-9.8,31.4,0.0,2.0,112
2014-11-14 21:45:05,21.6,-9.4,31.0,0.0,2.0,112
2014-11-14 21:50:05,21.6,-9.0,30.6,0.0,2.0,112
2014-11-14 21:55:05,21.6,-9.3,30.9,0.0,2.0,111
2014-11-14 22:00:05,21.5,-9.7,31.3,0.0,2.0,112
2014-11-14 22:05:05,21.5,-9.6,31.1,0.0,2.0,112
2014-11-14 22:10:05,21.4,-9.2,30.7,0.0,2.0,112
2014-11-14 22:15:05,21.5,-9.1,30.6,0.0,2.0,112
2014-11-14 22:20:05,21.4,-8.9,30.4,0.0,2.1,112
2014-11-14 22:25:05,21.5,-8.4,29.9,0.0,2.0,112
2014-11-14 22:30:05,21.5,-8.2,29.7,0.0,2.0,111
2014-11-14 22:35:05,21.5,-5.8,27.3,0.0,2.0,111
2014-11-14 22:40:05,21.6,-2.0,23.6,0.0,2.0,112
2014-11-14 22:45:05,21.8,-2.9,24.7,0.0,2.0,112
2014-11-14 22:50:05,21.9,-7.3,29.1,0.0,2.1,111
2014-11-14 22:55:05,21.9,-6.0,27.9,0.0,2.1,112
2014-11-14 23:00:05,22.2,-4.2,26.4,0.0,2.1,112
2014-11-14 23:05:05,21.6,-1.3,22.9,0.0,2.2,111
2014-11-14 23:10:05,20.5,4.0,16.5,0.0,2.0,111
2014-11-14 23:15:05,18.4,3.3,15.1,0.0,2.3,111
2014-11-14 23:20:05,18.0,3.3,14.6,0.0,2.3,112
2014-11-14 23:25:05,17.8,4.9,12.9,0.0,2.3,111
2014-11-14 23:30:05,17.8,5.8,12.1,0.0,2.3,112
2014-11-14 23:35:05,17.9,5.5,12.3,0.0,2.3,111
2014-11-14 23:40:05,17.9,2.1,15.8,0.0,2.3,111
2014-11-14 23:45:05,18.0,0.8,17.2,0.0,2.3,112
2014-11-14 23:50:05,19.4,-3.4,22.9,0.0,2.3,112
2014-11-14 23:55:05,21.5,-0.2,21.7,0.0,2.0,111
